Location: Newark
(29.9790°N, 31.1340°E)
Time: 20:51:18
(UTC+00:00)

A-11 Canister half - Pass Details

Date: 27 January 2020
Orbit: 1524 x 1684 km, 47.3° (Epoch: 22 February)

Event Time Altitude Azimuth Distance (km) Brightness Sun altitude
Rises 19:46:57 0° 309° (NW) 4,737 12.0 -56.0°
Reaches altitude 10° 19:50:17 10° 317° (NW) 3,773 11.3 -56.7°
Enters shadow 19:51:52 16° 322° (NW) 3,342 11.0 -57.0°
